Terminal Aerodrome Forecast
Issued by NWS Wichita, KS

Home | Current Version | Previous Version | Graphics & Text | Print | Product List | Glossary On
Versions: 1 2 3 4 5 6 7 8 9 10 11 12 13 14 15 16 17
538
FTUS43 KICT 242110 AAB
TAFICT
TAF AMD
KICT 242110Z 2421/2518 18012KT P6SM SCT080 BKN150
     FM250000 17014KT P6SM SCT250
     FM250400 16009KT P6SM SCT070 BKN120
     FM250800 18008KT P6SM VCTS BKN150CB
     FM251100 18008KT P6SM BKN120=

USA.gov is the U.S. government's official web portal to all federal, state and local government web resources and services.